Terug naar catalogus

XINGWANG JISHU SW 10-04

ActiefWetenschapVLEO
NORAD 69323·PAYLOAD·🇨🇳 China
Deze satellietnaam is nog niet bevestigd door officiële bronnen.

Gelanceerd May 30, 2026 vanaf Xichang Satellite Launch Center

Loading…

Volgende Passages (komende 24 uur)

TLE

VersSource: Space-Track

Epoch: Sep 14, 2026, 13:10 UTC

1 69323U 26120D   26257.54923324  .00003601  00000-0  18284-3 0  9994
2 69323  55.0086 350.4815 0011166 183.0460 177.0493 15.19374428 16374

Volg XINGWANG JISHU SW 10-04 in realtime met AllMySat

Download on the App Store